[[{"header":{"parameterUnit":"m.s-1","parameterCategory":1,"la1":30.2991,"la2":30.254,"lo1":-89.0895,"lo2":-89.0444,"dy":0.0017,"dx":0.0017,"nx":28,"ny":28,"refTime":"2025-11-08T09:00:00:Z","depth":0,"parameterNumber":2,"parameterNumberName":"U-component_of_WINDS"},"data":[0,0,0,0,0,0,0,0,0,0,0,0,0,0,0,0,0,0,0,0,0,0,0,0,0,0,0,0,0,0,0,0,0,0,0,0,0,0,0,0,0,0,0,0,0,0,0,0,0,0,0,0,0,0,0,0,0,0,1.9147,1.9147,0,1.9162,1.9162,1.9162,1.9102,1.9101,1.9099,1.9097,1.9111,1.9113,1.9115,0,0,0,0,0,0,0,0,0,0,0,0,0,1.9067,1.9068,1.9147,1.9147,1.9148,1.9162,1.9162,1.9162,1.9103,1.9101,1.9098,1.9096,1.9111,1.9113,1.9116,0,0,0,0,0,0,0,0,0,0,0,0,0,1.9093,1.9069,1.9147,1.912,1.9117,1.9162,1.9162,1.9162,1.9103,1.9101,1.9098,1.9095,1.911,1.9113,1.9116,1.9187,0,0,1.9125,1.9126,0,0,0,0,0,0,0,0,1.9092,1.9096,1.9124,1.9122,1.9119,1.9128,1.9139,1.9171,1.9104,1.9109,1.9097,1.9094,1.9119,1.9121,1.9129,1.9188,1.9188,1.9125,1.9127,1.9128,1.9129,0,0,0,0,0,0,0,1.909,1.9095,1.9153,1.9124,1.9121,1.9106,1.9107,1.9144,1.9128,1.9108,1.9104,1.9106,1.9117,1.9127,1.9129,1.9189,1.9125,1.9128,1.913,1.9131,1.9307,1.9309,0,0,0,0,0,0,1.9092,1.9094,1.9152,1.9153,1.9099,1.911,1.9111,1.9128,1.9128,1.9125,1.9108,1.9103,1.9123,1.9126,1.913,1.9214,1.9128,1.9131,1.9133,1.9304,1.9307,1.931,0,0,0,0,0,0,1.9091,1.9098,1.9152,1.9123,1.9128,1.9114,1.9133,1.9129,1.9139,1.9128,1.9125,1.9121,1.9121,1.9125,1.9173,1.9214,1.9133,1.9135,1.93,1.9305,1.9309,1.9383,0,0,0,0,0,0,1.9089,1.9098,1.9125,1.9124,1.913,1.9196,1.9136,1.9131,1.9144,1.9138,1.9139,1.9137,1.9119,1.9169,1.9177,1.9216,1.9138,1.9297,1.9302,1.9308,1.9377,1.9389,1.94,0,0,0,0,0,1.9086,1.9145,1.9127,1.9134,1.9164,1.9199,1.9202,1.9181,1.9148,1.9175,1.9168,1.9137,1.9208,1.9175,1.9182,1.9224,1.9294,1.9301,1.9307,1.9372,1.9387,1.9399,0,0,0,0,0,0,1.9151,1.9144,1.9124,1.9185,1.9193,1.9188,1.9222,1.9197,1.9215,1.9208,1.918,1.9181,1.9234,1.9233,1.9197,1.9293,1.9245,1.9254,1.9292,1.9306,1.9317,1.9317,1.914,0,0,0,0,0,1.9172,1.9201,1.9194,1.9248,1.9253,1.9237,1.9251,1.9234,1.9241,1.9244,1.924,1.9248,1.9272,1.9289,1.931,1.9376,1.9376,1.9408,1.9419,1.9429,1.9437,1.9472,1.9487,1.9332,1.9331,1.9331,0,0,1.9217,1.9217,1.9237,1.9261,1.9265,1.9296,1.924,1.9275,1.9297,1.9249,1.9295,1.9292,1.9299,1.9357,1.9382,1.9358,1.9479,1.9437,1.9445,1.9447,1.948,1.9495,1.9508,1.9336,1.9335,1.9334,0,0,1.9314,1.9317,1.9362,1.9368,1.9375,1.9364,1.9375,1.9375,1.9371,1.9417,1.9382,1.9407,1.9449,1.9456,1.9464,1.9564,1.9536,1.9571,1.9632,1.9667,1.9679,1.969,1.9726,1.9739,1.9579,1.9579,1.9579,0,1.9369,1.9414,1.9389,1.9426,1.9438,1.9396,1.9442,1.9448,1.9462,1.9471,1.9444,1.9495,1.9497,1.9556,1.958,1.9588,1.96,1.9572,1.9679,1.969,1.9699,1.9734,1.9748,1.9583,1.9583,1.9582,1.9582,0,1.9481,1.9512,1.9548,1.9564,1.9579,1.962,1.9602,1.962,1.9601,1.9593,1.964,1.964,1.9661,1.9674,1.9655,1.973,1.9715,1.9684,1.9636,1.9719,1.9751,1.9764,1.959,1.9588,1.9587,1.9586,0,0,1.9621,1.9621,1.9635,1.9642,1.9646,1.967,1.9709,1.973,1.9747,1.9757,1.979,1.9826,1.9798,1.9808,1.9789,1.982,1.99,1.9785,1.9785,1.9807,1.9983,2.0008,2.0024,1.9881,1.9883,1.9885,1.9983,0,1.9717,1.9785,1.9764,1.9833,1.9862,1.9822,1.9856,1.9863,1.9856,1.9879,1.9871,1.9898,1.9857,1.9863,1.9891,1.9884,1.9935,1.9877,1.9912,1.9913,1.9913,2.004,2.0066,2.0159,1.9995,1.9997,1.9999,0,1.9839,1.9855,1.9927,1.9927,1.9938,1.997,1.9987,2.001,2.0016,2.0009,2.0021,1.9996,2.0034,1.9985,2.0038,1.9999,2.0011,2.001,2.0013,2.0017,1.9962,2.0049,2.0188,2.0202,2.0018,2.0017,2.0015,0,1.9936,1.9975,2.0023,2.003,2.0031,2.0054,2.0055,2.0059,2.0073,2.0088,2.0097,2.0116,2.0127,2.0142,2.0123,2.0089,2.0179,2.0128,2.0175,2.0175,2.0197,2.0196,2.0341,2.0203,2.0202,2.0202,2.0202,0,2.0046,2.0092,2.0067,2.0097,2.0147,2.0121,2.0171,2.0168,2.0172,2.02,2.0166,2.0193,2.0166,2.0191,2.0176,2.0222,2.0227,2.0223,2.0219,2.0227,2.0228,2.0236,2.0229,2.0206,2.0205,2.0204,2.0204,0,2.0164,2.0148,2.0198,2.0195,2.0195,2.0233,2.0229,2.0257,2.0247,2.0283,2.029,2.0275,2.0303,2.0285,2.0312,2.0302,2.0364,2.035,2.0362,2.0359,2.0407,2.0403,2.0564,2.0584,2.0431,2.0433,2.0434,0,2.0236,2.0271,2.0271,2.0288,2.0292,2.0319,2.0333,2.0309,2.0325,2.0335,2.0361,2.0386,2.0404,2.045,2.0441,2.0462,2.0449,2.0504,2.0452,2.0459,2.0451,2.045,2.0454,2.0515,2.0517,2.0518,2.0519,0,2.0367,2.0358,2.038,2.04,2.0418,2.0432,2.0443,2.0458,2.0434,2.0454,2.0482,2.0496,2.0524,2.0549,2.0566,2.0567,2.054,2.0535,2.0548,2.0557,2.0563,2.0562,2.0392,2.0532,2.0531,2.053,2.0529,2.0529,2.0465,2.0494,2.0499,2.0525,2.0531,2.0542,2.0568,2.0562,2.0584,2.0606,2.059,2.0623,2.0628,2.0648,2.0653,2.0678,2.0656,2.0673,2.0678,2.0683,2.069,2.0558,2.0681,2.0681,2.068,2.068,2.068,0,2.0595,2.0596,2.062,2.0638,2.0658,2.063,2.0641,2.0659,2.0689,2.0696,2.0715,2.0747,2.0771,2.0764,2.0786,2.0807,2.0795,2.0814,2.0813,2.0814,2.0708,2.0696,2.0823,2.0823,2.0823,2.0823,2.0823,2.0823,2.0666,2.0714,2.0705,2.0755,2.0755,2.0788,2.0797,2.0807,2.0813,2.085,2.087,2.0865,2.0867,2.0888,2.0909,2.0906,2.0916,2.094,2.0933,2.0835,2.0821,2.0807,2.0796,2.0942,2.0942,2.1036,2.1037,2.1037]},{"header":{"parameterUnit":"m.s-1","parameterCategory":1,"la1":30.2991,"la2":30.254,"lo1":-89.0895,"lo2":-89.0444,"dy":0.0017,"dx":0.0017,"nx":28,"ny":28,"refTime":"2025-11-08T09:00:00:Z","depth":0,"parameterNumber":3,"parameterNumberName":"V-component_of_WINDS"},"data":[0,0,0,0,0,0,0,0,0,0,0,0,0,0,0,0,0,0,0,0,0,0,0,0,0,0,0,0,0,0,0,0,0,0,0,0,0,0,0,0,0,0,0,0,0,0,0,0,0,0,0,0,0,0,0,0,0,0,1.1592,1.1593,0,1.1665,1.1666,1.1666,1.1672,1.1672,1.1671,1.167,1.1746,1.1749,1.1751,0,0,0,0,0,0,0,0,0,0,0,0,0,1.1458,1.1461,1.1592,1.1593,1.1594,1.1665,1.1666,1.1667,1.1673,1.1672,1.1671,1.167,1.1745,1.1748,1.1752,0,0,0,0,0,0,0,0,0,0,0,0,0,1.1522,1.1461,1.1592,1.1605,1.1607,1.1664,1.1666,1.1667,1.1673,1.1672,1.167,1.1669,1.1744,1.1748,1.1752,1.1801,0,0,1.1765,1.1767,0,0,0,0,0,0,0,0,1.1519,1.1527,1.1602,1.1604,1.1607,1.1658,1.1646,1.1712,1.1673,1.1648,1.167,1.1669,1.1718,1.1724,1.174,1.1805,1.1808,1.1765,1.1768,1.1769,1.1771,0,0,0,0,0,0,0,1.1514,1.1524,1.1621,1.1603,1.1606,1.1608,1.1615,1.1659,1.1689,1.165,1.1651,1.1659,1.1719,1.1736,1.1742,1.1809,1.1765,1.1769,1.1771,1.1773,1.1918,1.1919,0,0,0,0,0,0,1.1507,1.152,1.1618,1.1623,1.1559,1.1611,1.162,1.1643,1.1688,1.1694,1.166,1.1659,1.173,1.1737,1.1745,1.1806,1.1769,1.1773,1.1776,1.1916,1.1918,1.192,0,0,0,0,0,0,1.1504,1.1516,1.1615,1.1572,1.1585,1.1615,1.164,1.1645,1.1662,1.1696,1.1701,1.1672,1.1729,1.1739,1.1787,1.1808,1.1775,1.1779,1.1915,1.1917,1.1919,1.1928,0,0,0,0,0,0,1.15,1.1515,1.1534,1.1572,1.1587,1.1656,1.1642,1.1647,1.1669,1.1669,1.1709,1.1714,1.1729,1.1781,1.1791,1.1814,1.1782,1.1913,1.1916,1.1918,1.1926,1.193,1.1933,0,0,0,0,0,1.1495,1.1534,1.1535,1.1546,1.1611,1.1658,1.1666,1.1682,1.1671,1.1691,1.1712,1.1713,1.1804,1.1786,1.1798,1.1821,1.1912,1.1915,1.1918,1.1924,1.1929,1.1933,0,0,0,0,0,0,1.1498,1.1539,1.1541,1.1592,1.1621,1.1658,1.1684,1.1687,1.172,1.1718,1.1736,1.1745,1.1793,1.1812,1.1791,1.1871,1.1857,1.1862,1.1857,1.1863,1.1866,1.1861,1.1786,0,0,0,0,0,1.1504,1.1538,1.1572,1.1614,1.1629,1.1654,1.1674,1.1684,1.1715,1.1728,1.1752,1.1783,1.1818,1.1841,1.1876,1.1928,1.1937,1.195,1.1954,1.1957,1.1962,1.1991,1.1997,1.193,1.193,1.193,0,0,1.1518,1.1544,1.1565,1.1615,1.1639,1.1674,1.1664,1.1702,1.1728,1.1733,1.178,1.1799,1.1834,1.1885,1.1908,1.1902,1.1982,1.1961,1.1963,1.1966,1.1995,1.2001,1.2007,1.1932,1.1931,1.1931,0,0,1.1561,1.1584,1.1622,1.1646,1.1681,1.1697,1.1706,1.1743,1.1756,1.1803,1.1808,1.1839,1.19,1.1924,1.1945,1.1996,1.1999,1.2007,1.2027,1.2055,1.2061,1.2065,1.2084,1.2091,1.2011,1.2011,1.2011,0,1.1574,1.1626,1.1641,1.1678,1.1701,1.1706,1.1745,1.1767,1.1812,1.1828,1.182,1.1895,1.1919,1.1976,1.1988,1.2004,1.2015,1.2003,1.2059,1.2064,1.2068,1.2086,1.2093,1.2012,1.2012,1.2012,1.2012,0,1.164,1.1677,1.1703,1.1746,1.1771,1.1809,1.1829,1.1853,1.186,1.1876,1.1924,1.1953,1.1993,1.2007,1.2014,1.2064,1.2059,1.2055,1.2041,1.2075,1.2093,1.21,1.2013,1.2013,1.2013,1.2012,0,0,1.1688,1.1738,1.1747,1.1767,1.1806,1.1835,1.1872,1.1911,1.1931,1.1962,1.1994,1.2045,1.204,1.2064,1.2074,1.2098,1.2137,1.2091,1.2092,1.2099,1.2194,1.2198,1.2206,1.2138,1.214,1.2141,1.2191,0,1.1736,1.1803,1.1817,1.1876,1.1909,1.1915,1.1948,1.1975,1.1992,1.2023,1.2041,1.2077,1.2068,1.2082,1.2106,1.2127,1.2157,1.2124,1.2169,1.2171,1.2161,1.2215,1.2219,1.2266,1.2198,1.2199,1.22,0,1.1802,1.1833,1.1895,1.1929,1.1944,1.1973,1.2009,1.2039,1.207,1.208,1.2106,1.2113,1.2152,1.2135,1.219,1.2167,1.2187,1.2199,1.2202,1.2207,1.2188,1.2223,1.2281,1.2288,1.2211,1.221,1.2209,0,1.1831,1.1889,1.1933,1.1949,1.199,1.2011,1.2029,1.2059,1.2081,1.2113,1.2128,1.2164,1.2184,1.2211,1.2228,1.2214,1.2282,1.2266,1.2292,1.2291,1.2307,1.2306,1.2369,1.2317,1.2317,1.2317,1.2317,0,1.1884,1.1921,1.1947,1.1974,1.2016,1.2032,1.2073,1.2091,1.2117,1.2148,1.2155,1.2184,1.2203,1.2235,1.2248,1.2292,1.2301,1.231,1.2314,1.231,1.2309,1.2324,1.2322,1.2319,1.2319,1.2318,1.2318,0,1.1924,1.1943,1.1991,1.2026,1.2035,1.2065,1.2094,1.2121,1.2137,1.2176,1.2186,1.2211,1.2249,1.2268,1.2315,1.2324,1.2373,1.2374,1.2362,1.2364,1.2389,1.2386,1.2465,1.2476,1.2416,1.2416,1.2417,0,1.1957,1.1986,1.2023,1.2044,1.2063,1.2097,1.2119,1.2135,1.2158,1.2195,1.2218,1.2255,1.2287,1.2346,1.2369,1.2405,1.2407,1.2432,1.2413,1.2409,1.2409,1.2407,1.241,1.2436,1.2437,1.2437,1.2438,0,1.2014,1.2021,1.2054,1.2089,1.2115,1.2144,1.2172,1.2189,1.2209,1.2235,1.2273,1.2297,1.2345,1.2382,1.242,1.2438,1.2442,1.2443,1.2451,1.2449,1.2441,1.2446,1.2373,1.2442,1.2441,1.2441,1.2441,1.2441,1.2052,1.2078,1.2108,1.2144,1.2166,1.2192,1.2219,1.2238,1.227,1.231,1.2317,1.2358,1.2388,1.2438,1.2458,1.249,1.2484,1.2496,1.2499,1.2502,1.2503,1.2435,1.2497,1.2496,1.2496,1.2496,1.2496,0,1.211,1.2129,1.2162,1.2201,1.2228,1.2228,1.2259,1.2282,1.2318,1.2345,1.2376,1.2419,1.2455,1.248,1.2517,1.2538,1.254,1.2547,1.2546,1.2551,1.2506,1.2495,1.2545,1.2545,1.2545,1.2545,1.2545,1.2545,1.2143,1.2187,1.2198,1.2253,1.2272,1.2312,1.233,1.2354,1.2376,1.2424,1.2454,1.247,1.2496,1.2535,1.2568,1.2574,1.2588,1.2595,1.2601,1.2559,1.2554,1.2549,1.254,1.2597,1.2597,1.2644,1.2644,1.2645]}]]